TimeCST,TemperatureF,Dew PointF,Humidity,Sea Level PressureIn,VisibilityMPH,Wind Direction,Wind SpeedMPH,Gust SpeedMPH,PrecipitationIn,Events,Conditions,WindDirDegrees,DateUTC
12:15 AM,24.8,17.4,74,29.95,10.0,West,18.4,29.9,N/A,,Clear,280,2012-12-21 06:15:00
12:35 AM,24.8,17.1,72,29.95,10.0,West,18.4,29.9,N/A,,Clear,280,2012-12-21 06:35:00
12:55 AM,24.6,17.1,73,29.97,10.0,West,17.3,29.9,N/A,,Clear,280,2012-12-21 06:55:00
1:15 AM,23.9,16.7,74,29.97,10.0,West,19.6,29.9,N/A,,Clear,280,2012-12-21 07:15:00
1:35 AM,23.9,16.7,74,29.99,10.0,West,18.4,26.5,N/A,,Clear,280,2012-12-21 07:35:00
1:55 AM,23.7,16.5,74,30.00,10.0,West,18.4,28.8,N/A,,Scattered Clouds,280,2012-12-21 07:55:00
2:15 AM,23.7,16.2,73,30.01,10.0,West,19.6,29.9,N/A,,Scattered Clouds,280,2012-12-21 08:15:00
2:35 AM,23.7,16.0,72,30.02,10.0,West,18.4,26.5,N/A,,Clear,280,2012-12-21 08:35:00
2:55 AM,23.5,16.2,73,30.03,10.0,West,13.8,27.6,N/A,,Clear,280,2012-12-21 08:55:00
3:15 AM,23.5,15.8,72,30.03,10.0,West,20.7,27.6,N/A,,Scattered Clouds,280,2012-12-21 09:15:00
3:35 AM,23.0,15.6,73,30.04,10.0,West,18.4,29.9,N/A,,Scattered Clouds,280,2012-12-21 09:35:00
3:55 AM,23.0,15.1,72,30.04,10.0,West,18.4,27.6,N/A,,Clear,280,2012-12-21 09:55:00
4:15 AM,22.6,14.9,72,30.05,10.0,WNW,15.0,26.5,N/A,,Clear,290,2012-12-21 10:15:00
4:35 AM,22.3,14.7,73,30.06,10.0,West,17.3,23.0,N/A,,Clear,280,2012-12-21 10:35:00
4:55 AM,22.1,14.5,73,30.07,10.0,West,19.6,26.5,N/A,,Scattered Clouds,280,2012-12-21 10:55:00
5:15 AM,22.1,14.5,73,30.07,10.0,West,16.1,27.6,N/A,,Scattered Clouds,280,2012-12-21 11:15:00
5:35 AM,21.9,14.4,73,30.08,10.0,West,15.0,23.0,N/A,,Scattered Clouds,280,2012-12-21 11:35:00
5:55 AM,21.7,14.0,72,30.09,10.0,West,15.0,24.2,N/A,,Scattered Clouds,280,2012-12-21 11:55:00
6:15 AM,21.6,14.0,73,30.11,10.0,West,15.0,26.5,N/A,,Clear,280,2012-12-21 12:15:00
6:35 AM,21.2,14.0,74,30.12,10.0,West,16.1,24.2,N/A,,Scattered Clouds,280,2012-12-21 12:35:00
6:55 AM,21.0,13.8,74,30.13,10.0,West,15.0,19.6,N/A,,Clear,280,2012-12-21 12:55:00
7:15 AM,20.7,13.6,74,30.14,10.0,West,12.7,21.9,N/A,,Clear,280,2012-12-21 13:15:00
7:35 AM,20.7,13.1,73,30.15,10.0,West,13.8,21.9,N/A,,Clear,280,2012-12-21 13:35:00
7:55 AM,20.7,13.1,73,30.16,10.0,West,15.0,19.6,N/A,,Clear,270,2012-12-21 13:55:00
8:15 AM,21.0,13.3,72,30.17,10.0,West,12.7,18.4,N/A,,Clear,280,2012-12-21 14:15:00
8:35 AM,21.4,13.1,70,30.18,10.0,WNW,13.8,20.7,N/A,,Clear,290,2012-12-21 14:35:00
8:55 AM,21.7,12.9,69,30.20,10.0,WNW,18.4,25.3,N/A,,Clear,290,2012-12-21 14:55:00
9:15 AM,22.1,12.9,68,30.20,10.0,WNW,13.8,23.0,N/A,,Clear,290,2012-12-21 15:15:00
9:35 AM,23.0,13.5,67,30.22,10.0,WNW,12.7,23.0,N/A,,Clear,290,2012-12-21 15:35:00
9:55 AM,24.1,13.8,65,30.23,10.0,WNW,13.8,20.7,N/A,,Clear,290,2012-12-21 15:55:00
10:15 AM,24.8,14.0,64,30.23,10.0,West,13.8,19.6,N/A,,Scattered Clouds,280,2012-12-21 16:15:00
10:35 AM,25.3,14.2,63,30.23,10.0,WNW,13.8,20.7,N/A,,Clear,290,2012-12-21 16:35:00
10:55 AM,26.4,14.7,61,30.24,10.0,WNW,12.7,18.4,N/A,,Clear,290,2012-12-21 16:55:00
11:15 AM,26.6,14.9,61,30.24,10.0,WNW,11.5,19.6,N/A,,Clear,300,2012-12-21 17:15:00
11:35 AM,28.2,15.8,60,30.23,10.0,WNW,10.4,17.3,N/A,,Clear,290,2012-12-21 17:35:00
11:55 AM,28.4,14.0,55,30.23,10.0,WNW,10.4,18.4,N/A,,Clear,300,2012-12-21 17:55:00
12:15 PM,29.3,14.9,55,30.23,10.0,WNW,11.5,-,N/A,,Clear,290,2012-12-21 18:15:00
12:35 PM,29.8,15.3,55,30.23,10.0,WNW,13.8,19.6,N/A,,Clear,290,2012-12-21 18:35:00
12:55 PM,30.4,14.2,51,30.23,10.0,West,12.7,20.7,N/A,,Clear,280,2012-12-21 18:55:00
1:15 PM,31.1,14.5,50,30.23,10.0,WNW,11.5,-,N/A,,Clear,290,2012-12-21 19:15:00
1:35 PM,31.6,14.5,49,30.23,10.0,WNW,11.5,16.1,N/A,,Clear,300,2012-12-21 19:35:00
1:55 PM,31.6,14.4,49,30.23,10.0,WNW,10.4,18.4,N/A,,Clear,300,2012-12-21 19:55:00
2:15 PM,31.6,13.5,47,30.23,10.0,WNW,12.7,21.9,N/A,,Clear,300,2012-12-21 20:15:00
2:35 PM,31.8,14.2,48,30.23,10.0,NW,11.5,19.6,N/A,,Clear,310,2012-12-21 20:35:00
2:55 PM,31.8,15.3,50,30.23,10.0,WNW,9.2,-,N/A,,Clear,290,2012-12-21 20:55:00
3:15 PM,31.8,15.4,51,30.24,10.0,WNW,13.8,18.4,N/A,,Clear,290,2012-12-21 21:15:00
3:35 PM,31.6,15.8,52,30.24,10.0,WNW,9.2,-,N/A,,Clear,290,2012-12-21 21:35:00
3:55 PM,31.1,15.3,52,30.24,10.0,WNW,11.5,16.1,N/A,,Clear,290,2012-12-21 21:55:00
4:15 PM,30.9,15.4,53,30.25,10.0,WNW,9.2,-,N/A,,Clear,290,2012-12-21 22:15:00
4:35 PM,30.2,15.8,55,30.26,10.0,West,6.9,-,N/A,,Clear,280,2012-12-21 22:35:00
4:55 PM,28.9,16.5,60,30.26,10.0,West,8.1,-,N/A,,Clear,280,2012-12-21 22:55:00
5:15 PM,29.1,16.7,60,30.27,10.0,West,6.9,-,N/A,,Clear,280,2012-12-21 23:15:00
5:35 PM,28.4,15.8,59,30.28,10.0,West,5.8,-,N/A,,Clear,280,2012-12-21 23:35:00
5:55 PM,27.3,16.7,64,30.28,10.0,West,5.8,-,N/A,,Clear,270,2012-12-21 23:55:00
6:15 PM,27.5,16.7,64,30.28,10.0,West,6.9,-,N/A,,Clear,280,2012-12-22 00:15:00
6:35 PM,27.1,16.7,65,30.29,10.0,West,6.9,-,N/A,,Clear,280,2012-12-22 00:35:00
6:55 PM,27.1,16.2,63,30.29,10.0,West,6.9,-,N/A,,Clear,270,2012-12-22 00:55:00
7:15 PM,26.6,15.8,64,30.29,10.0,West,6.9,-,N/A,,Clear,270,2012-12-22 01:15:00
7:35 PM,26.6,15.6,63,30.29,10.0,West,8.1,-,N/A,,Clear,270,2012-12-22 01:35:00
7:55 PM,25.5,15.4,66,30.29,10.0,West,6.9,-,N/A,,Clear,270,2012-12-22 01:55:00
8:15 PM,25.0,15.6,68,30.29,10.0,West,5.8,-,N/A,,Clear,280,2012-12-22 02:15:00
8:35 PM,25.5,15.8,67,30.30,10.0,WNW,5.8,-,N/A,,Clear,290,2012-12-22 02:35:00
8:55 PM,25.9,15.4,65,30.29,10.0,WNW,6.9,-,N/A,,Clear,290,2012-12-22 02:55:00
9:15 PM,25.7,14.9,64,30.28,10.0,WNW,6.9,-,N/A,,Clear,290,2012-12-22 03:15:00
9:35 PM,25.7,14.9,64,30.28,10.0,WNW,6.9,-,N/A,,Clear,290,2012-12-22 03:35:00
9:55 PM,24.8,14.9,66,30.28,10.0,West,6.9,-,N/A,,Clear,280,2012-12-22 03:55:00
10:15 PM,23.4,14.2,68,30.28,10.0,West,5.8,-,N/A,,Clear,270,2012-12-22 04:15:00
10:35 PM,22.6,14.2,70,30.29,10.0,West,6.9,-,N/A,,Clear,270,2012-12-22 04:35:00
10:55 PM,22.6,14.5,71,30.29,10.0,West,5.8,-,N/A,,Clear,270,2012-12-22 04:55:00
11:15 PM,22.6,14.2,70,30.28,10.0,Calm,Calm,-,N/A,,Clear,0,2012-12-22 05:15:00
11:35 PM,22.3,14.0,71,30.28,10.0,West,3.5,-,N/A,,Clear,270,2012-12-22 05:35:00
11:55 PM,21.4,14.2,74,30.28,10.0,West,3.5,-,N/A,,Clear,270,2012-12-22 05:55:00